Time,TemperatureF,DewpointF,PressureIn,WindDirection,WindDirectionDegrees,WindSpeedMPH,WindSpeedGustMPH,Humidity,HourlyPrecipIn,Conditions,Clouds,dailyrainin,SoftwareType,DateUTC
2013-02-19 00:09:00,40.6,40.1,29.71,West,270,2.7,-999.0,98,-99.99,,,0.01,Acu-Link.com,2013-02-19 08:09:00,
2013-02-19 00:24:00,40.5,40.0,29.70,West,270,0.0,-999.0,98,-99.99,,,0.02,Acu-Link.com,2013-02-19 08:24:00,
2013-02-19 00:40:00,39.9,39.4,29.70,NE,45,0.0,-999.0,98,-99.99,,,0.02,Acu-Link.com,2013-02-19 08:40:00,
2013-02-19 00:55:00,39.2,38.7,29.69,WSW,247,0.0,-999.0,98,-99.99,,,0.02,Acu-Link.com,2013-02-19 08:55:00,
2013-02-19 01:17:00,38.8,38.3,29.71,SE,135,0.0,-999.0,98,-99.99,,,0.02,Acu-Link.com,2013-02-19 09:17:00,
2013-02-19 01:33:00,39.0,38.5,29.70,West,270,0.0,-999.0,98,-99.99,,,0.02,Acu-Link.com,2013-02-19 09:33:00,
2013-02-19 01:48:00,39.0,38.5,29.69,NE,45,0.0,-999.0,98,-99.99,,,0.02,Acu-Link.com,2013-02-19 09:48:00,
2013-02-19 02:03:00,39.2,38.7,29.69,SSW,202,2.2,-999.0,98,-99.99,,,0.02,Acu-Link.com,2013-02-19 10:03:00,
2013-02-19 02:18:00,39.6,39.1,29.69,SW,225,0.0,-999.0,98,-99.99,,,0.02,Acu-Link.com,2013-02-19 10:18:00,
2013-02-19 02:33:00,39.6,39.1,29.70,ESE,112,1.1,-999.0,98,-99.99,,,0.02,Acu-Link.com,2013-02-19 10:33:00,
2013-02-19 02:48:00,39.9,39.4,29.69,SSW,202,0.0,-999.0,98,-99.99,,,0.02,Acu-Link.com,2013-02-19 10:48:00,
2013-02-19 03:04:00,39.9,39.4,29.69,SE,135,0.0,-999.0,98,-99.99,,,0.02,Acu-Link.com,2013-02-19 11:04:00,
2013-02-19 03:19:00,40.1,39.6,29.69,South,180,0.0,-999.0,98,-99.99,,,0.02,Acu-Link.com,2013-02-19 11:19:00,
2013-02-19 03:34:00,40.1,39.6,29.70,SSE,157,0.0,-999.0,98,-99.99,,,0.02,Acu-Link.com,2013-02-19 11:34:00,
2013-02-19 03:49:00,40.5,40.0,29.69,South,180,0.0,-999.0,98,-99.99,,,0.02,Acu-Link.com,2013-02-19 11:49:00,
2013-02-19 04:05:00,40.6,40.1,29.70,SSE,157,0.0,-999.0,98,-99.99,,,0.02,Acu-Link.com,2013-02-19 12:05:00,
2013-02-19 04:20:00,40.8,40.3,29.70,SSW,202,0.0,-999.0,98,-99.99,,,0.02,Acu-Link.com,2013-02-19 12:20:00,
2013-02-19 04:35:00,40.8,40.3,29.70,SSE,157,0.0,-999.0,98,-99.99,,,0.02,Acu-Link.com,2013-02-19 12:35:00,
2013-02-19 04:50:00,40.8,40.3,29.70,North,0,0.0,-999.0,98,-99.99,,,0.02,Acu-Link.com,2013-02-19 12:50:00,
2013-02-19 05:05:00,41.0,40.5,29.69,NNW,337,0.0,-999.0,98,-99.99,,,0.02,Acu-Link.com,2013-02-19 13:05:00,
2013-02-19 05:20:00,41.0,40.5,29.71,NNW,337,0.0,-999.0,98,-99.99,,,0.02,Acu-Link.com,2013-02-19 13:20:00,
2013-02-19 05:36:00,41.2,40.7,29.70,NE,45,1.1,-999.0,98,-99.99,,,0.02,Acu-Link.com,2013-02-19 13:36:00,
2013-02-19 05:51:00,41.5,41.0,29.71,NNE,22,0.0,-999.0,98,-99.99,,,0.02,Acu-Link.com,2013-02-19 13:51:00,
2013-02-19 06:06:00,41.4,40.9,29.71,ESE,112,0.0,-999.0,98,-99.99,,,0.02,Acu-Link.com,2013-02-19 14:06:00,
2013-02-19 06:21:00,41.4,40.9,29.71,ESE,112,0.0,-999.0,98,-99.99,,,0.02,Acu-Link.com,2013-02-19 14:21:00,
2013-02-19 06:36:00,41.5,41.0,29.70,West,270,3.2,-999.0,98,-99.99,,,0.02,Acu-Link.com,2013-02-19 14:36:00,
2013-02-19 06:52:00,41.7,41.2,29.71,East,90,2.2,-999.0,98,-99.99,,,0.02,Acu-Link.com,2013-02-19 14:52:00,
2013-02-19 07:07:00,41.4,40.9,29.72,SSE,157,1.7,-999.0,98,-99.99,,,0.02,Acu-Link.com,2013-02-19 15:07:00,
2013-02-19 07:22:00,41.5,41.0,29.73,WSW,247,2.2,-999.0,98,-99.99,,,0.02,Acu-Link.com,2013-02-19 15:22:00,
2013-02-19 07:37:00,41.9,41.4,29.73,West,270,2.7,-999.0,98,-99.99,,,0.02,Acu-Link.com,2013-02-19 15:37:00,
2013-02-19 07:52:00,43.3,42.8,29.72,WSW,247,5.8,-999.0,98,-99.99,,,0.02,Acu-Link.com,2013-02-19 15:52:00,
2013-02-19 08:07:00,42.6,42.1,29.73,West,270,3.7,-999.0,98,-99.99,,,0.02,Acu-Link.com,2013-02-19 16:07:00,
2013-02-19 08:22:00,42.4,41.9,29.74,West,270,1.1,-999.0,98,-99.99,,,0.02,Acu-Link.com,2013-02-19 16:22:00,
2013-02-19 08:38:00,43.0,42.5,29.74,West,270,1.1,-999.0,98,-99.99,,,0.02,Acu-Link.com,2013-02-19 16:38:00,
2013-02-19 08:53:00,43.3,42.8,29.74,West,270,0.0,-999.0,98,-99.99,,,0.02,Acu-Link.com,2013-02-19 16:53:00,
2013-02-19 09:08:00,43.7,43.2,29.75,NW,315,1.7,-999.0,98,-99.99,,,0.02,Acu-Link.com,2013-02-19 17:08:00,
2013-02-19 09:24:00,43.9,43.4,29.77,NW,315,0.0,-999.0,98,-99.99,,,0.02,Acu-Link.com,2013-02-19 17:24:00,
2013-02-19 09:39:00,44.8,44.3,29.76,ESE,112,0.0,-999.0,98,-99.99,,,0.02,Acu-Link.com,2013-02-19 17:39:00,
2013-02-19 09:54:00,45.0,44.5,29.76,ESE,112,2.2,-999.0,98,-99.99,,,0.02,Acu-Link.com,2013-02-19 17:54:00,
2013-02-19 10:10:00,45.0,44.5,29.76,ESE,112,1.1,-999.0,98,-99.99,,,0.02,Acu-Link.com,2013-02-19 18:10:00,
2013-02-19 10:25:00,44.4,43.9,29.75,ESE,112,0.0,-999.0,98,-99.99,,,0.02,Acu-Link.com,2013-02-19 18:25:00,
2013-02-19 10:40:00,44.6,44.1,29.76,East,90,1.1,-999.0,98,-99.99,,,0.02,Acu-Link.com,2013-02-19 18:40:00,
2013-02-19 10:55:00,45.0,44.5,29.75,SE,135,0.0,-999.0,98,-99.99,,,0.02,Acu-Link.com,2013-02-19 18:55:00,
2013-02-19 11:10:00,45.0,44.5,29.76,East,90,3.2,-999.0,98,-99.99,,,0.02,Acu-Link.com,2013-02-19 19:10:00,
2013-02-19 11:26:00,45.3,44.8,29.77,East,90,4.2,-999.0,98,-99.99,,,0.02,Acu-Link.com,2013-02-19 19:26:00,
2013-02-19 11:41:00,45.9,45.4,29.77,East,90,2.7,-999.0,98,-99.99,,,0.02,Acu-Link.com,2013-02-19 19:41:00,
2013-02-19 11:56:00,45.3,44.8,29.77,West,270,2.2,-999.0,98,-99.99,,,0.03,Acu-Link.com,2013-02-19 19:56:00,
2013-02-19 12:11:00,45.9,45.4,29.77,West,270,0.0,-999.0,98,-99.99,,,0.03,Acu-Link.com,2013-02-19 20:11:00,
2013-02-19 12:26:00,47.1,46.6,29.76,East,90,0.0,-999.0,98,-99.99,,,0.03,Acu-Link.com,2013-02-19 20:26:00,
2013-02-19 12:42:00,47.3,46.8,29.77,East,90,2.7,-999.0,98,-99.99,,,0.03,Acu-Link.com,2013-02-19 20:42:00,
2013-02-19 12:57:00,47.8,47.3,29.77,ENE,67,2.2,-999.0,98,-99.99,,,0.03,Acu-Link.com,2013-02-19 20:57:00,
2013-02-19 13:12:00,48.2,47.4,29.77,ENE,67,2.7,-999.0,97,-99.99,,,0.03,Acu-Link.com,2013-02-19 21:12:00,
2013-02-19 13:28:00,48.4,47.9,29.77,East,90,7.8,-999.0,98,-99.99,,,0.03,Acu-Link.com,2013-02-19 21:28:00,
2013-02-19 13:43:00,48.9,47.8,29.79,East,90,8.3,-999.0,96,-99.99,,,0.03,Acu-Link.com,2013-02-19 21:43:00,
2013-02-19 13:58:00,48.6,47.0,29.79,East,90,8.9,-999.0,94,-99.99,,,0.03,Acu-Link.com,2013-02-19 21:58:00,
2013-02-19 14:13:00,48.0,47.5,29.78,East,90,8.3,-999.0,98,-99.99,,,0.03,Acu-Link.com,2013-02-19 22:13:00,
2013-02-19 14:29:00,48.0,46.6,29.79,East,90,7.8,-999.0,95,-99.99,,,0.03,Acu-Link.com,2013-02-19 22:29:00,
2013-02-19 14:44:00,48.0,45.8,29.79,East,90,10.4,-999.0,92,-99.99,,,0.03,Acu-Link.com,2013-02-19 22:44:00,
2013-02-19 14:59:00,47.8,45.0,29.80,ENE,67,4.2,-999.0,90,-99.99,,,0.03,Acu-Link.com,2013-02-19 22:59:00,
2013-02-19 15:14:00,47.5,45.6,29.81,East,90,4.7,-999.0,93,-99.99,,,0.03,Acu-Link.com,2013-02-19 23:14:00,
2013-02-19 15:30:00,47.8,45.0,29.81,East,90,3.7,-999.0,90,-99.99,,,0.03,Acu-Link.com,2013-02-19 23:30:00,
2013-02-19 15:45:00,47.7,45.5,29.80,ENE,67,3.7,-999.0,92,-99.99,,,0.03,Acu-Link.com,2013-02-19 23:45:00,
2013-02-19 16:00:00,47.3,44.5,29.81,East,90,5.8,-999.0,90,-99.99,,,0.03,Acu-Link.com,2013-02-20 00:00:00,
2013-02-19 16:15:00,47.3,45.1,29.82,NE,45,4.7,-999.0,92,-99.99,,,0.03,Acu-Link.com,2013-02-20 00:15:00,
2013-02-19 16:30:00,47.3,44.2,29.82,East,90,8.3,-999.0,89,-99.99,,,0.03,Acu-Link.com,2013-02-20 00:30:00,
2013-02-19 16:45:00,47.3,45.1,29.82,East,90,7.3,-999.0,92,-99.99,,,0.03,Acu-Link.com,2013-02-20 00:45:00,
2013-02-19 17:01:00,46.9,45.0,29.82,East,90,7.3,-999.0,93,-99.99,,,0.03,Acu-Link.com,2013-02-20 01:01:00,
2013-02-19 17:16:00,46.8,45.2,29.82,ENE,67,6.8,-999.0,94,-99.99,,,0.03,Acu-Link.com,2013-02-20 01:16:00,
2013-02-19 17:31:00,46.2,45.7,29.83,East,90,5.8,-999.0,98,-99.99,,,0.03,Acu-Link.com,2013-02-20 01:31:00,
2013-02-19 17:47:00,45.0,44.5,29.83,NNW,337,1.1,-999.0,98,-99.99,,,0.03,Acu-Link.com,2013-02-20 01:47:00,
2013-02-19 18:02:00,43.9,43.4,29.83,SSE,157,2.2,-999.0,98,-99.99,,,0.03,Acu-Link.com,2013-02-20 02:02:00,
2013-02-19 18:17:00,43.2,42.7,29.84,WSW,247,2.2,-999.0,98,-99.99,,,0.03,Acu-Link.com,2013-02-20 02:17:00,
2013-02-19 18:32:00,42.8,42.3,29.85,SSW,202,1.7,-999.0,98,-99.99,,,0.03,Acu-Link.com,2013-02-20 02:32:00,
2013-02-19 18:48:00,42.3,41.8,29.87,WSW,247,2.7,-999.0,98,-99.99,,,0.03,Acu-Link.com,2013-02-20 02:48:00,
2013-02-19 19:03:00,41.4,40.9,29.87,SW,225,1.7,-999.0,98,-99.99,,,0.03,Acu-Link.com,2013-02-20 03:03:00,
2013-02-19 19:18:00,41.2,40.7,29.86,SE,135,1.1,-999.0,98,-99.99,,,0.03,Acu-Link.com,2013-02-20 03:18:00,
2013-02-19 19:34:00,40.5,40.0,29.87,SW,225,1.7,-999.0,98,-99.99,,,0.03,Acu-Link.com,2013-02-20 03:34:00,
2013-02-19 19:49:00,39.9,39.4,29.88,ESE,112,0.0,-999.0,98,-99.99,,,0.03,Acu-Link.com,2013-02-20 03:49:00,
2013-02-19 20:04:00,39.2,38.7,29.89,WSW,247,0.0,-999.0,98,-99.99,,,0.03,Acu-Link.com,2013-02-20 04:04:00,
2013-02-19 20:19:00,39.2,38.7,29.90,South,180,0.0,-999.0,98,-99.99,,,0.03,Acu-Link.com,2013-02-20 04:19:00,
2013-02-19 20:35:00,39.2,38.7,29.90,West,270,0.0,-999.0,98,-99.99,,,0.03,Acu-Link.com,2013-02-20 04:35:00,
2013-02-19 20:50:00,38.3,37.8,29.90,WSW,247,0.0,-999.0,98,-99.99,,,0.03,Acu-Link.com,2013-02-20 04:50:00,
2013-02-19 21:05:00,38.5,38.0,29.91,East,90,0.0,-999.0,98,-99.99,,,0.03,Acu-Link.com,2013-02-20 05:05:00,
2013-02-19 21:20:00,38.1,37.6,29.91,South,180,0.0,-999.0,98,-99.99,,,0.03,Acu-Link.com,2013-02-20 05:20:00,
2013-02-19 21:35:00,37.8,37.3,29.93,South,180,0.0,-999.0,98,-99.99,,,0.03,Acu-Link.com,2013-02-20 05:35:00,
2013-02-19 21:51:00,37.4,36.9,29.91,South,180,0.0,-999.0,98,-99.99,,,0.03,Acu-Link.com,2013-02-20 05:51:00,
2013-02-19 22:06:00,37.6,37.1,29.93,South,180,0.0,-999.0,98,-99.99,,,0.03,Acu-Link.com,2013-02-20 06:06:00,
2013-02-19 22:21:00,37.9,37.4,29.94,South,180,0.0,-999.0,98,-99.99,,,0.03,Acu-Link.com,2013-02-20 06:21:00,
2013-02-19 22:37:00,38.3,37.8,29.94,SSE,157,1.7,-999.0,98,-99.99,,,0.03,Acu-Link.com,2013-02-20 06:37:00,
2013-02-19 22:52:00,39.2,38.7,29.94,WNW,292,1.1,-999.0,98,-99.99,,,0.03,Acu-Link.com,2013-02-20 06:52:00,
2013-02-19 23:07:00,38.3,37.8,29.95,ESE,112,0.0,-999.0,98,-99.99,,,0.03,Acu-Link.com,2013-02-20 07:07:00,
2013-02-19 23:23:00,39.0,38.5,29.96,SSE,157,0.0,-999.0,98,-99.99,,,0.03,Acu-Link.com,2013-02-20 07:23:00,
2013-02-19 23:38:00,39.2,38.7,29.96,SSE,157,0.0,-999.0,98,-99.99,,,0.03,Acu-Link.com,2013-02-20 07:38:00,
2013-02-19 23:53:00,39.2,38.7,29.96,ESE,112,0.0,-999.0,98,-99.99,,,0.03,Acu-Link.com,2013-02-20 07:53:00,